Regional Weather Roundup
Issued by NWS Upton, NY

Current Version | Previous Version | Text Only | Print | Product List | Glossary Off
Versions: 1 2 3 4 5 6 7 8 9 10 11 12 13 14 15 16 17 18 19 20 21 22 23 24 25 26 27

000
ASUS41 KOKX 231308
RWROKX

REGIONAL WEATHER ROUNDUP
NATIONAL WEATHER SERVICE NEW YORK NY
800 AM EST THU FEB 23 2017

NOTE: "FAIR" INDICATES FEW OR NO CLOUDS BELOW 12,000 FEET WITH NO
SIGNIFICANT WEATHER AND/OR OBSTRUCTIONS TO VISIBILITY.

NYZ071-072-176-178-NJZ106-104-231400-
NEW YORK CITY METRO AREA

CITY           SKY/WX    TMP DP  RH WIND       PRES   REMARKS
Central Park   SUNNY     48  42  80 CALM      29.92R
Wall St Helipt NOT AVBL
LaGuardia APRT MOSUNNY   45  40  82 N5        29.91R
Kennedy INTL   FOG       43  43 100 S5        29.92R VSB 1/8
Breezy Point     N/A     41 N/A N/A SW3         N/A
Newark/Liberty FOG       44  43  96 SW6       29.91R VSB 1/4
Teterboro      SUNNY     44  38  79 CALM      29.90R
$$

NYZ177-179-078>081-231400-
LONG ISLAND NEW YORK

CITY           SKY/WX    TMP DP  RH WIND       PRES   REMARKS
Jones Beach      N/A     43 N/A N/A S3          N/A
Matinecock PT  NOT AVBL
Farmingdale    FOG       42  42 100 CALM      29.91R VSB<1/4
MacArthur/ISP  FOG       43  43 100 SW3       29.91R VSB 1/16
Shirley        FOG       43  43 100 S5        29.92S VSB<1/4
Westhampton    FOG       38  37  97 CALM      29.93R VSB<1/4
Southampton      N/A     43  43 100 SW2       29.89
Bridgehampton  NOT AVBL
East Hampton     N/A     42  42  99 SW3       29.91S FOG
Montauk          N/A     45  45 100 SE3       29.92R
$$

NYZ052-065-067-231400-
HUDSON VALLEY

CITY           SKY/WX    TMP DP  RH WIND       PRES   REMARKS
White Plains   SUNNY     42  40  92 CALM      29.89R FOG
Newburgh       SUNNY     39  37  93 W6        29.89  WCI  35
Montgomery     SUNNY     36  34  92 SW3       29.87R
Poughkeepsie   SUNNY     37  35  92 CALM      29.88R
Albany         MOSUNNY   46  37  71 S9        29.83S
$$

NJZ001-105-106-008-010-013-015-019>022-104-231400-
NEW JERSEY

CITY           SKY/WX    TMP DP  RH WIND       PRES   REMARKS
Newark/Liberty FOG       44  43  96 SW6       29.91R VSB 1/4
Teterboro      SUNNY     44  38  79 CALM      29.90R
Caldwell       SUNNY     39  37  92 CALM      29.91R
Somerville     FOG       36  35  96 CALM      29.89S VSB 1/4
Linden         NOT AVBL
Sussex         SUNNY     34  34 100 CALM      29.89R FOG
Andover          N/A     34  34 100 CALM      29.90R
Trenton        FOG       46  46 100 CALM      29.90R VSB 1/4
Millville      CLOUDY    47  47 100 CALM      29.92R FOG
Atlantic City  CLOUDY    49  48  97 CALM      29.92R
Wrightstown    CLOUDY    48  48 100 SW3       29.89R
Toms River     CLOUDY    44  44 100 CALM      29.93R FOG
Belmar         CLOUDY    46  46 100 S5        29.92R FOG
$$

PAZ047>061-062-071-231400-
EASTERN PENNSYLVANIA

CITY           SKY/WX    TMP DP  RH WIND       PRES   REMARKS
Philadelphia   FOG       49  48  97 CALM      29.92R VSB 1/2
Allentown      SUNNY     37  34  89 CALM      29.90R HAZE
Scranton       PTSUNNY   43  41  93 CALM      29.86S FOG
$$

CTZ002-004>006-009-010-012-RIZ004-006-007-MAZ004-011-015-231400-
SOUTHERN NEW ENGLAND
 IN CT

CITY           SKY/WX    TMP DP  RH WIND       PRES   REMARKS
Bradley INTL   MOSUNNY   39  36  89 CALM      29.88R
Hartford       SUNNY     39  37  92 CALM      29.90R
Danbury        SUNNY     35  33  92 CALM      29.91R
Wtrbury/Oxford SUNNY     43  39  87 SW5       29.90R FOG
Bridgeport     FOG       39  37  92 CALM      29.91R VSB 1
Meriden        FOG       39  37  92 S5        29.91R VSB<1/4
New Haven      FOG       37  37 100 CALM      29.91R VSB 1/2
Chester          N/A     45  45 100 VRB6      29.90R
Groton         FOG       38  37  97 CALM      29.91R VSB<1/4
Wilimantic     SUNNY     36  32  85 CALM      29.91R

 IN RI

CITY           SKY/WX    TMP DP  RH WIND       PRES   REMARKS
Providence     MOSUNNY   42  39  89 S6        29.89S
Block Island   NOT AVBL
Westerly       FOG       38  36  92 CALM      29.92R VSB<1/4
 IN MA

CITY           SKY/WX    TMP DP  RH WIND       PRES   REMARKS
Boston         MOSUNNY   42  40  92 S6        29.87S
Worcester      SUNNY     45  36  70 SW9       29.85S
Westfield      MOSUNNY   35  33  92 CALM      29.87S
Provincetown   FOG       39  39 100 S8        29.90S VSB 1/2 WCI  33
Nantucket      FOG       43  42  97 SW8       29.92R VSB 1/4
$$

ANZ330-335-338-340-345-350-353-355-231400-
COASTAL MARINE OBSERVATIONS


STATION/POSITION TIME  SKY/WX   TEMP    WIND        PRES    VSBY  WAVE
                                AIR SEA DIR/SP/G                  HT/PER
                 (UTC)          (F)     (DEG/KT/KT) (MB)    (MI)  (FT/S)
NY HARB ENTRANCE 1150            42 42  200/  6/  6 1012.0          2/11
20 S FIRE ISLAND 1250            44 43  200/ 10/ 10 1013.1          3/10
GREAT SOUTH BAY  NOT AVBL
23 SSW MONTAUK P 1150            46 44              1013.1          3/11
15 E BARNEGAT LI 1230               42                N/A           4/11
HUDSON CANYON    1150               49              1013.5          3/11
KINGS POINT      1224            38 38              1012.3
EXECUTION ROCKS  NOT AVBL
CENTRAL LI SOUND NOT AVBL
EASTERN LI SOUND NOT AVBL
ROBBINS REEF     1242            44     260/  7/  8 1012.8
$$


>>>>>>>>>>>>>>>>>>>>>>>>>>>> KEY <<<<<<<<<<<<<<<<<<<<<<<<<<<
>                                                          <
>     SKY/WX - Sky Condition/Present Weather               <
>     TMP    - Temperature in Fahrenheit                   <
>     DP     - Dew Point in Fahrenheit                     <
>     RH     - Relative Humidity in Percent                <
>     WIND   - Direction (from) and Speed in MPH           <
>     PRES   - Mean Sea Level Pressure (inches of Hg)      <
>     WCI    - Wind Chill Index                            <
>     VSB    - VISIBILITY IN MILES                         <
>     HX     - HEAT INDEX                                  <
>     TC     - TEMPERATURE IN CELSIUS                      <
>     VRB    - VARIABLE WIND DIRECTION                     <
>                                                          <
>>>>>>>>>>>>>>>>>>>>>>>>>>>> KEY <<<<<<<<<<<<<<<<<<<<<<<<<<<




USA.gov is the U.S. government's official web portal to all federal, state and local government web resources and services.